Wetterdaten: Dienstag, 14.05.2013
Datum Zeit Temperatur Luftfeuchte Luftdruck Regen Wind Richtung Richtung Taupunkt Windchill Windben
14.05.2013 00:00 7,1 C 86 % 1018,3 hPa 0,0 l/m 0,0 km/h (0 Bft) O-NO 67 4,9 C 6,9 C 0,0 km/h (0 Bft)
14.05.2013 00:05 7,0 C 86 % 1018,1 hPa 0,0 l/m 0,0 km/h (0 Bft) W 270 4,8 C 6,9 C 0,0 km/h (0 Bft)
14.05.2013 00:10 7,0 C 86 % 1018,1 hPa 0,0 l/m 0,0 km/h (0 Bft) O 90 4,8 C 6,9 C 0,0 km/h (0 Bft)
14.05.2013 00:15 7,0 C 86 % 1018,1 hPa 0,0 l/m 0,2 km/h (0 Bft) S 180 4,8 C 6,9 C 2,1 km/h (1 Bft)
14.05.2013 00:20 7,1 C 86 % 1018,1 hPa 0,0 l/m 0,6 km/h (0 Bft) S 180 4,9 C 7,0 C 0,0 km/h (0 Bft)
14.05.2013 00:25 7,0 C 86 % 1017,9 hPa 0,0 l/m 0,6 km/h (0 Bft) SO 135 4,8 C 7,0 C 0,0 km/h (0 Bft)
14.05.2013 00:30 7,0 C 86 % 1017,9 hPa 0,0 l/m 0,0 km/h (0 Bft) O-SO 112 4,8 C 6,9 C 0,0 km/h (0 Bft)
14.05.2013 00:35 7,0 C 86 % 1017,9 hPa 0,0 l/m 0,2 km/h (0 Bft) SO 135 4,8 C 6,9 C 0,0 km/h (0 Bft)
14.05.2013 00:40 7,0 C 86 % 1017,9 hPa 0,0 l/m 0,2 km/h (0 Bft) O 90 4,8 C 7,0 C 0,0 km/h (0 Bft)
14.05.2013 00:45 7,0 C 86 % 1017,8 hPa 0,0 l/m 0,0 km/h (0 Bft) O 90 4,8 C 7,0 C 0,0 km/h (0 Bft)
14.05.2013 00:50 7,1 C 86 % 1017,8 hPa 0,0 l/m 0,0 km/h (0 Bft) S 180 4,9 C 7,1 C 0,0 km/h (0 Bft)
14.05.2013 00:55 7,2 C 86 % 1017,8 hPa 0,0 l/m 0,0 km/h (0 Bft) S-SO 157 5,0 C 7,2 C 0,0 km/h (0 Bft)
14.05.2013 01:00 7,3 C 86 % 1017,8 hPa 0,0 l/m 0,0 km/h (0 Bft) S-SO 157 5,1 C 7,3 C 0,0 km/h (0 Bft)
14.05.2013 01:05 7,2 C 86 % 1017,8 hPa 0,0 l/m 0,0 km/h (0 Bft) S-SO 157 5,0 C 7,3 C 0,0 km/h (0 Bft)
14.05.2013 01:10 7,3 C 86 % 1017,8 hPa 0,0 l/m 0,0 km/h (0 Bft) N-NO 22 5,1 C 7,2 C 0,0 km/h (0 Bft)
14.05.2013 01:15 7,2 C 86 % 1017,8 hPa 0,0 l/m 0,0 km/h (0 Bft) N-NO 22 5,0 C 7,2 C 0,0 km/h (0 Bft)
14.05.2013 01:20 7,2 C 86 % 1017,8 hPa 0,0 l/m 0,0 km/h (0 Bft) N-NW 337 5,0 C 7,2 C 0,0 km/h (0 Bft)
14.05.2013 01:25 7,2 C 86 % 1017,8 hPa 0,0 l/m 0,0 km/h (0 Bft) NO 45 5,0 C 7,2 C 0,0 km/h (0 Bft)
14.05.2013 01:30 7,3 C 86 % 1017,8 hPa 0,0 l/m 0,2 km/h (0 Bft) NO 45 5,1 C 7,2 C 0,0 km/h (0 Bft)
14.05.2013 01:35 7,2 C 86 % 1017,8 hPa 0,0 l/m 0,2 km/h (0 Bft) O-SO 112 5,0 C 7,1 C 0,0 km/h (0 Bft)
14.05.2013 01:40 7,0 C 86 % 1017,8 hPa 0,0 l/m 0,3 km/h (0 Bft) W-SW 247 4,8 C 6,9 C 2,3 km/h (1 Bft)
14.05.2013 01:45 6,8 C 87 % 1017,6 hPa 0,0 l/m 0,8 km/h (0 Bft) O 90 4,8 C 6,9 C 3,4 km/h (1 Bft)
14.05.2013 01:50 6,6 C 86 % 1017,6 hPa 0,0 l/m 0,8 km/h (0 Bft) O-SO 112 4,4 C 6,7 C 2,4 km/h (1 Bft)
14.05.2013 01:55 6,5 C 86 % 1017,6 hPa 0,0 l/m 0,8 km/h (0 Bft) O-NO 67 4,3 C 6,6 C 0,0 km/h (0 Bft)
14.05.2013 02:00 6,3 C 86 % 1017,6 hPa 0,0 l/m 0,6 km/h (0 Bft) O 90 4,1 C 6,3 C 4,5 km/h (1 Bft)
14.05.2013 02:05 6,4 C 87 % 1017,6 hPa 0,0 l/m 1,1 km/h (1 Bft) NO 45 4,4 C 6,1 C 3,1 km/h (1 Bft)
14.05.2013 02:10 6,3 C 87 % 1017,6 hPa 0,0 l/m 1,9 km/h (1 Bft) O-NO 67 4,3 C 6,2 C 6,4 km/h (2 Bft)
14.05.2013 02:15 6,4 C 87 % 1017,6 hPa 0,0 l/m 1,9 km/h (1 Bft) O 90 4,4 C 6,1 C 4,8 km/h (1 Bft)
14.05.2013 02:20 6,3 C 87 % 1017,6 hPa 0,0 l/m 1,9 km/h (1 Bft) O 90 4,3 C 6,1 C 2,3 km/h (1 Bft)
14.05.2013 02:25 6,4 C 87 % 1017,4 hPa 0,0 l/m 1,9 km/h (1 Bft) O 90 4,4 C 6,1 C 0,0 km/h (0 Bft)
14.05.2013 02:30 6,3 C 87 % 1017,4 hPa 0,0 l/m 1,3 km/h (1 Bft) S-SO 157 4,3 C 5,9 C 0,0 km/h (0 Bft)
14.05.2013 02:35 6,1 C 87 % 1017,4 hPa 0,0 l/m 0,6 km/h (0 Bft) W-SW 247 4,1 C 5,9 C 0,0 km/h (0 Bft)
14.05.2013 02:40 5,8 C 88 % 1017,4 hPa 0,0 l/m 0,2 km/h (0 Bft) O 90 4,0 C 5,6 C 0,0 km/h (0 Bft)
14.05.2013 02:45 5,7 C 88 % 1017,2 hPa 0,0 l/m 0,3 km/h (0 Bft) SO 135 3,9 C 5,5 C 0,0 km/h (0 Bft)
14.05.2013 02:50 5,6 C 88 % 1017,2 hPa 0,0 l/m 0,3 km/h (0 Bft) O-SO 112 3,8 C 5,3 C 0,0 km/h (0 Bft)
14.05.2013 02:55 5,5 C 88 % 1017,2 hPa 0,0 l/m 0,2 km/h (0 Bft) O-SO 112 3,7 C 5,3 C 0,0 km/h (0 Bft)
14.05.2013 03:00 5,5 C 88 % 1017,2 hPa 0,0 l/m 0,0 km/h (0 Bft) S 180 3,7 C 5,2 C 0,0 km/h (0 Bft)
14.05.2013 03:05 5,3 C 88 % 1017,2 hPa 0,0 l/m 0,0 km/h (0 Bft) O-SO 112 3,5 C 5,1 C 0,0 km/h (0 Bft)
14.05.2013 03:10 5,1 C 88 % 1017,2 hPa 0,0 l/m 0,0 km/h (0 Bft) SO 135 3,3 C 5,0 C 0,0 km/h (0 Bft)
14.05.2013 03:15 5,1 C 89 % 1017,2 hPa 0,0 l/m 0,3 km/h (0 Bft) S-SO 157 3,4 C 5,0 C 0,0 km/h (0 Bft)
14.05.2013 03:20 5,3 C 89 % 1017,2 hPa 0,0 l/m 0,5 km/h (0 Bft) W-SW 247 3,6 C 5,0 C 0,0 km/h (0 Bft)
14.05.2013 03:25 5,3 C 89 % 1016,9 hPa 0,0 l/m 0,2 km/h (0 Bft) S-SW 202 3,6 C 5,1 C 0,0 km/h (0 Bft)
14.05.2013 03:30 5,3 C 89 % 1016,9 hPa 0,0 l/m 0,5 km/h (0 Bft) N 360 3,6 C 5,1 C 1,6 km/h (1 Bft)
14.05.2013 03:35 5,3 C 90 % 1016,9 hPa 0,0 l/m 0,5 km/h (0 Bft) SW 225 3,8 C 5,0 C 0,0 km/h (0 Bft)
14.05.2013 03:40 5,1 C 90 % 1016,9 hPa 0,0 l/m 0,0 km/h (0 Bft) S-SW 202 3,6 C 5,0 C 0,0 km/h (0 Bft)
14.05.2013 03:45 5,3 C 91 % 1017,1 hPa 0,0 l/m 0,0 km/h (0 Bft) W-SW 247 4,0 C 5,0 C 0,0 km/h (0 Bft)
14.05.2013 03:50 5,3 C 91 % 1017,1 hPa 0,0 l/m 0,0 km/h (0 Bft) O-NO 67 4,0 C 5,0 C 0,0 km/h (0 Bft)
14.05.2013 03:55 5,1 C 90 % 1017,1 hPa 0,0 l/m 0,2 km/h (0 Bft) NO 45 3,6 C 5,0 C 0,0 km/h (0 Bft)
14.05.2013 04:00 5,4 C 91 % 1017,1 hPa 0,0 l/m 1,1 km/h (1 Bft) S-SO 157 4,1 C 5,0 C 0,0 km/h (0 Bft)
14.05.2013 04:05 5,6 C 92 % 1017,1 hPa 0,0 l/m 1,8 km/h (1 Bft) NO 45 4,4 C 5,1 C 3,1 km/h (1 Bft)
14.05.2013 04:10 5,5 C 92 % 1017,1 hPa 0,0 l/m 1,3 km/h (1 Bft) O-NO 67 4,3 C 5,2 C 0,0 km/h (0 Bft)
14.05.2013 04:15 5,3 C 91 % 1017,1 hPa 0,0 l/m 0,8 km/h (0 Bft) NO 45 4,0 C 5,2 C 2,1 km/h (1 Bft)
14.05.2013 04:20 5,3 C 91 % 1017,1 hPa 0,0 l/m 0,2 km/h (0 Bft) W-SW 247 4,0 C 5,2 C 2,6 km/h (1 Bft)
14.05.2013 04:25 5,4 C 91 % 1016,9 hPa 0,0 l/m 0,2 km/h (0 Bft) W-NW 292 4,1 C 5,3 C 0,0 km/h (0 Bft)
14.05.2013 04:30 5,5 C 91 % 1016,9 hPa 0,0 l/m 0,2 km/h (0 Bft) N 360 4,2 C 5,3 C 0,0 km/h (0 Bft)
14.05.2013 04:35 5,6 C 91 % 1016,9 hPa 0,0 l/m 0,2 km/h (0 Bft) O 90 4,2 C 5,3 C 0,0 km/h (0 Bft)
14.05.2013 04:40 5,7 C 91 % 1016,9 hPa 0,0 l/m 0,3 km/h (0 Bft) O 90 4,3 C 5,5 C 1,8 km/h (1 Bft)
14.05.2013 04:45 5,8 C 91 % 1016,8 hPa 0,0 l/m 0,5 km/h (0 Bft) O-SO 112 4,4 C 5,7 C 0,0 km/h (0 Bft)
14.05.2013 04:50 5,9 C 91 % 1016,8 hPa 0,0 l/m 0,3 km/h (0 Bft) NO 45 4,5 C 5,7 C 0,0 km/h (0 Bft)
14.05.2013 04:55 6,0 C 90 % 1016,8 hPa 0,0 l/m 0,3 km/h (0 Bft) N 360 4,5 C 5,8 C 0,0 km/h (0 Bft)
14.05.2013 05:00 5,9 C 91 % 1016,8 hPa 0,0 l/m 0,3 km/h (0 Bft) W-NW 292 4,5 C 5,8 C 0,0 km/h (0 Bft)
14.05.2013 05:05 5,7 C 91 % 1016,7 hPa 0,0 l/m 0,2 km/h (0 Bft) NO 45 4,3 C 5,7 C 0,0 km/h (0 Bft)
14.05.2013 05:10 5,4 C 91 % 1016,7 hPa 0,0 l/m 0,0 km/h (0 Bft) NO 45 4,1 C 5,3 C 0,0 km/h (0 Bft)
14.05.2013 05:15 5,3 C 90 % 1016,7 hPa 0,0 l/m 0,0 km/h (0 Bft) N 360 3,8 C 5,2 C 0,0 km/h (0 Bft)
14.05.2013 05:20 5,1 C 90 % 1016,7 hPa 0,0 l/m 0,0 km/h (0 Bft) NO 45 3,6 C 4,9 C 0,0 km/h (0 Bft)
14.05.2013 05:25 5,1 C 90 % 1016,6 hPa 0,0 l/m 0,0 km/h (0 Bft) O-NO 67 3,6 C 4,8 C 0,0 km/h (0 Bft)
14.05.2013 05:30 5,0 C 90 % 1016,6 hPa 0,0 l/m 0,0 km/h (0 Bft) O-NO 67 3,5 C 4,6 C 0,0 km/h (0 Bft)
14.05.2013 05:35 4,9 C 91 % 1016,6 hPa 0,0 l/m 0,0 km/h (0 Bft) NO 45 3,6 C 4,6 C 0,0 km/h (0 Bft)
14.05.2013 05:40 4,9 C 91 % 1016,6 hPa 0,0 l/m 0,0 km/h (0 Bft) S-SO 157 3,6 C 4,5 C 0,0 km/h (0 Bft)
14.05.2013 05:45 5,0 C 91 % 1016,8 hPa 0,0 l/m 0,0 km/h (0 Bft) S-SO 157 3,7 C 4,6 C 1,9 km/h (1 Bft)
14.05.2013 05:50 5,1 C 91 % 1016,8 hPa 0,0 l/m 0,2 km/h (0 Bft) O-SO 112 3,8 C 4,7 C 0,0 km/h (0 Bft)
14.05.2013 05:55 5,0 C 91 % 1016,8 hPa 0,0 l/m 0,2 km/h (0 Bft) O-SO 112 3,7 C 4,7 C 0,0 km/h (0 Bft)
14.05.2013 06:00 5,0 C 91 % 1016,8 hPa 0,0 l/m 0,0 km/h (0 Bft) NO 45 3,7 C 4,7 C 0,0 km/h (0 Bft)
14.05.2013 06:05 4,9 C 91 % 1016,9 hPa 0,0 l/m 0,0 km/h (0 Bft) N-NO 22 3,6 C 4,7 C 0,0 km/h (0 Bft)
14.05.2013 06:10 4,8 C 91 % 1016,9 hPa 0,0 l/m 0,0 km/h (0 Bft) NO 45 3,5 C 4,6 C 0,0 km/h (0 Bft)
14.05.2013 06:15 4,8 C 91 % 1016,9 hPa 0,0 l/m 0,2 km/h (0 Bft) S-SW 202 3,5 C 4,6 C 1,6 km/h (1 Bft)
14.05.2013 06:20 4,8 C 91 % 1016,9 hPa 0,0 l/m 0,2 km/h (0 Bft) SO 135 3,5 C 4,6 C 0,0 km/h (0 Bft)
14.05.2013 06:25 4,8 C 91 % 1017,2 hPa 0,0 l/m 0,2 km/h (0 Bft) S 180 3,5 C 4,6 C 1,8 km/h (1 Bft)
14.05.2013 06:30 5,0 C 91 % 1017,2 hPa 0,0 l/m 0,0 km/h (0 Bft) SO 135 3,7 C 4,7 C 0,0 km/h (0 Bft)
14.05.2013 06:35 5,1 C 91 % 1017,2 hPa 0,0 l/m 0,0 km/h (0 Bft) W-SW 247 3,8 C 4,9 C 0,0 km/h (0 Bft)
14.05.2013 06:40 5,5 C 91 % 1017,2 hPa 0,0 l/m 0,0 km/h (0 Bft) W-SW 247 4,2 C 5,0 C 0,0 km/h (0 Bft)
14.05.2013 06:45 5,3 C 91 % 1017,2 hPa 0,0 l/m 0,2 km/h (0 Bft) NO 45 4,0 C 5,1 C 3,1 km/h (1 Bft)
14.05.2013 06:50 6,1 C 90 % 1017,2 hPa 0,0 l/m 0,5 km/h (0 Bft) W-NW 292 4,6 C 5,3 C 0,0 km/h (0 Bft)
14.05.2013 06:55 7,8 C 89 % 1017,2 hPa 0,0 l/m 0,5 km/h (0 Bft) O 90 6,1 C 6,1 C 2,4 km/h (1 Bft)
14.05.2013 07:00 8,8 C 87 % 1017,2 hPa 0,0 l/m 1,1 km/h (1 Bft) NO 45 6,8 C 7,3 C 3,5 km/h (1 Bft)
14.05.2013 07:05 9,8 C 82 % 1017,3 hPa 0,0 l/m 2,1 km/h (1 Bft) O-SO 112 6,9 C 8,1 C 2,1 km/h (1 Bft)
14.05.2013 07:10 10,9 C 79 % 1017,3 hPa 0,0 l/m 1,1 km/h (1 Bft) W-SW 247 7,4 C 10,1 C 0,0 km/h (0 Bft)
14.05.2013 07:15 11,9 C 77 % 1017,3 hPa 0,0 l/m 0,3 km/h (0 Bft) W-SW 247 8,0 C 11,1 C 0,0 km/h (0 Bft)
14.05.2013 07:20 10,5 C 78 % 1017,3 hPa 0,0 l/m 0,0 km/h (0 Bft) NO 45 6,8 C 11,7 C 0,0 km/h (0 Bft)
14.05.2013 07:25 11,9 C 75 % 1017,3 hPa 0,0 l/m 0,0 km/h (0 Bft) N-NW 337 7,6 C 11,7 C 0,0 km/h (0 Bft)
14.05.2013 07:30 13,2 C 70 % 1017,3 hPa 0,0 l/m 0,0 km/h (0 Bft) N-NO 22 7,9 C 13,4 C 0,0 km/h (0 Bft)
14.05.2013 07:35 13,8 C 69 % 1017,3 hPa 0,0 l/m 0,0 km/h (0 Bft) O 90 8,2 C 14,1 C 0,0 km/h (0 Bft)
14.05.2013 07:40 14,4 C 65 % 1017,3 hPa 0,0 l/m 0,0 km/h (0 Bft) NO 45 7,9 C 15,2 C 0,0 km/h (0 Bft)
14.05.2013 07:45 15,2 C 66 % 1017,4 hPa 0,0 l/m 0,0 km/h (0 Bft) O-NO 67 8,9 C 15,7 C 0,0 km/h (0 Bft)
14.05.2013 07:50 15,8 C 63 % 1017,4 hPa 0,0 l/m 0,2 km/h (0 Bft) SO 135 8,8 C 16,4 C 3,4 km/h (1 Bft)
14.05.2013 07:55 16,0 C 56 % 1017,4 hPa 0,0 l/m 1,1 km/h (1 Bft) S 180 7,2 C 16,3 C 2,7 km/h (1 Bft)
14.05.2013 08:00 17,0 C 55 % 1017,4 hPa 0,0 l/m 2,1 km/h (1 Bft) S-SW 202 7,9 C 16,1 C 0,0 km/h (0 Bft)
14.05.2013 08:05 16,7 C 53 % 1017,4 hPa 0,0 l/m 2,4 km/h (1 Bft) S-SW 202 7,1 C 16,2 C 6,1 km/h (2 Bft)
14.05.2013 08:10 16,8 C 51 % 1017,4 hPa 0,0 l/m 3,7 km/h (1 Bft) S-SW 202 6,6 C 15,7 C 7,2 km/h (2 Bft)
14.05.2013 08:15 16,8 C 51 % 1017,4 hPa 0,0 l/m 4,2 km/h (1 Bft) S-SW 202 6,6 C 15,6 C 6,8 km/h (2 Bft)
14.05.2013 08:20 16,9 C 50 % 1017,4 hPa 0,0 l/m 4,2 km/h (1 Bft) S 180 6,4 C 15,6 C 9,2 km/h (2 Bft)
14.05.2013 08:25 17,1 C 48 % 1017,5 hPa 0,0 l/m 4,5 km/h (1 Bft) S-SW 202 6,0 C 15,6 C 5,8 km/h (2 Bft)
14.05.2013 08:30 16,7 C 49 % 1017,5 hPa 0,0 l/m 4,8 km/h (1 Bft) S-SW 202 5,9 C 15,6 C 10,0 km/h (2 Bft)
14.05.2013 08:35 16,8 C 50 % 1017,5 hPa 0,0 l/m 5,6 km/h (1 Bft) S 180 6,3 C 15,3 C 6,4 km/h (2 Bft)
14.05.2013 08:40 17,1 C 48 % 1017,5 hPa 0,0 l/m 6,6 km/h (2 Bft) SO 135 6,0 C 15,1 C 11,9 km/h (2 Bft)
14.05.2013 08:45 17,6 C 49 % 1017,4 hPa 0,0 l/m 6,0 km/h (2 Bft) W-SW 247 6,8 C 15,4 C 5,0 km/h (1 Bft)
14.05.2013 08:50 17,2 C 47 % 1017,4 hPa 0,0 l/m 5,1 km/h (1 Bft) S 180 5,8 C 15,8 C 7,2 km/h (2 Bft)
14.05.2013 08:55 17,2 C 48 % 1017,4 hPa 0,0 l/m 5,0 km/h (1 Bft) W 270 6,1 C 15,9 C 5,0 km/h (1 Bft)
14.05.2013 09:00 17,6 C 47 % 1017,4 hPa 0,0 l/m 4,8 km/h (1 Bft) S-SW 202 6,2 C 16,4 C 4,0 km/h (1 Bft)
14.05.2013 09:05 17,6 C 46 % 1017,4 hPa 0,0 l/m 4,5 km/h (1 Bft) S 180 5,8 C 16,3 C 6,1 km/h (2 Bft)
14.05.2013 09:10 17,9 C 48 % 1017,4 hPa 0,0 l/m 3,4 km/h (1 Bft) W-SW 247 6,7 C 16,9 C 4,0 km/h (1 Bft)
14.05.2013 09:15 17,6 C 47 % 1017,4 hPa 0,0 l/m 2,4 km/h (1 Bft) SW 225 6,2 C 17,2 C 0,0 km/h (0 Bft)
14.05.2013 09:20 18,1 C 48 % 1017,4 hPa 0,0 l/m 2,4 km/h (1 Bft) S-SO 157 6,9 C 17,7 C 3,1 km/h (1 Bft)
14.05.2013 09:25 17,7 C 46 % 1017,1 hPa 0,0 l/m 2,1 km/h (1 Bft) W 270 5,9 C 18,3 C 3,2 km/h (1 Bft)
14.05.2013 09:30 18,3 C 47 % 1017,1 hPa 0,0 l/m 2,3 km/h (1 Bft) W-SW 247 6,8 C 18,5 C 3,9 km/h (1 Bft)
14.05.2013 09:35 18,2 C 46 % 1017,1 hPa 0,0 l/m 3,4 km/h (1 Bft) S 180 6,4 C 18,4 C 4,5 km/h (1 Bft)
14.05.2013 09:40 18,7 C 46 % 1017,1 hPa 0,0 l/m 3,2 km/h (1 Bft) O-SO 112 6,8 C 18,6 C 5,5 km/h (1 Bft)
14.05.2013 09:45 17,5 C 46 % 1017,3 hPa 0,0 l/m 2,7 km/h (1 Bft) N-NO 22 5,8 C 18,8 C 3,9 km/h (1 Bft)
14.05.2013 09:50 18,2 C 46 % 1017,3 hPa 0,0 l/m 2,6 km/h (1 Bft) W-SW 247 6,4 C 18,9 C 3,4 km/h (1 Bft)
14.05.2013 09:55 17,6 C 45 % 1017,3 hPa 0,0 l/m 2,9 km/h (1 Bft) W-NW 292 5,5 C 18,9 C 5,3 km/h (1 Bft)
14.05.2013 10:00 17,0 C 47 % 1017,3 hPa 0,0 l/m 2,7 km/h (1 Bft) NO 45 5,6 C 18,4 C 0,0 km/h (0 Bft)
14.05.2013 10:05 17,8 C 48 % 1017,4 hPa 0,0 l/m 2,6 km/h (1 Bft) W-SW 247 6,6 C 19,0 C 4,8 km/h (1 Bft)
14.05.2013 10:10 18,1 C 45 % 1017,4 hPa 0,0 l/m 2,6 km/h (1 Bft) W-NW 292 6,0 C 19,2 C 3,7 km/h (1 Bft)
14.05.2013 10:15 17,3 C 45 % 1017,4 hPa 0,0 l/m 3,4 km/h (1 Bft) N-NW 337 5,3 C 18,8 C 4,2 km/h (1 Bft)
14.05.2013 10:20 17,5 C 46 % 1017,4 hPa 0,0 l/m 3,2 km/h (1 Bft) N-NW 337 5,8 C 19,2 C 5,3 km/h (1 Bft)
14.05.2013 10:25 18,3 C 44 % 1017,4 hPa 0,0 l/m 2,6 km/h (1 Bft) O 90 5,8 C 19,6 C 2,9 km/h (1 Bft)
14.05.2013 10:30 18,6 C 44 % 1017,4 hPa 0,0 l/m 2,6 km/h (1 Bft) S-SW 202 6,1 C 20,3 C 3,4 km/h (1 Bft)
14.05.2013 10:35 18,5 C 44 % 1017,4 hPa 0,0 l/m 2,1 km/h (1 Bft) W-NW 292 6,0 C 20,6 C 2,3 km/h (1 Bft)
14.05.2013 10:40 18,5 C 45 % 1017,4 hPa 0,0 l/m 1,9 km/h (1 Bft) W 270 6,3 C 21,1 C 3,7 km/h (1 Bft)
14.05.2013 10:45 18,3 C 43 % 1017,4 hPa 0,0 l/m 2,7 km/h (1 Bft) W-SW 247 5,5 C 20,7 C 4,5 km/h (1 Bft)
14.05.2013 10:50 19,3 C 41 % 1017,4 hPa 0,0 l/m 3,9 km/h (1 Bft) W-SW 247 5,7 C 20,9 C 4,5 km/h (1 Bft)
14.05.2013 10:55 20,2 C 42 % 1017,4 hPa 0,0 l/m 3,5 km/h (1 Bft) W 270 6,9 C 21,3 C 4,2 km/h (1 Bft)
14.05.2013 11:00 17,5 C 46 % 1017,4 hPa 0,0 l/m 3,5 km/h (1 Bft) S 180 5,8 C 20,7 C 2,9 km/h (1 Bft)
14.05.2013 11:05 17,7 C 49 % 1017,4 hPa 0,0 l/m 3,1 km/h (1 Bft) W-SW 247 6,9 C 20,6 C 0,0 km/h (0 Bft)
14.05.2013 11:10 17,3 C 48 % 1017,4 hPa 0,0 l/m 2,9 km/h (1 Bft) SW 225 6,2 C 20,1 C 7,7 km/h (2 Bft)
14.05.2013 11:15 17,8 C 48 % 1017,4 hPa 0,0 l/m 4,0 km/h (1 Bft) S-SW 202 6,6 C 19,1 C 7,4 km/h (2 Bft)
14.05.2013 11:20 17,0 C 50 % 1017,4 hPa 0,0 l/m 4,2 km/h (1 Bft) S 180 6,5 C 19,1 C 5,0 km/h (1 Bft)
14.05.2013 11:25 16,8 C 50 % 1017,1 hPa 0,0 l/m 4,0 km/h (1 Bft) SW 225 6,3 C 18,6 C 6,4 km/h (2 Bft)
14.05.2013 11:30 17,6 C 48 % 1017,1 hPa 0,0 l/m 4,7 km/h (1 Bft) W-NW 292 6,5 C 19,1 C 5,5 km/h (1 Bft)
14.05.2013 11:35 19,4 C 48 % 1017,1 hPa 0,0 l/m 4,2 km/h (1 Bft) S 180 8,1 C 19,0 C 1,6 km/h (1 Bft)
14.05.2013 11:40 19,4 C 46 % 1017,1 hPa 0,0 l/m 3,5 km/h (1 Bft) S 180 7,5 C 20,3 C 4,0 km/h (1 Bft)
14.05.2013 11:45 19,7 C 44 % 1017,2 hPa 0,0 l/m 4,2 km/h (1 Bft) W 270 7,1 C 20,4 C 6,4 km/h (2 Bft)
14.05.2013 11:50 21,1 C 42 % 1017,2 hPa 0,0 l/m 4,3 km/h (1 Bft) W-SW 247 7,7 C 21,2 C 2,9 km/h (1 Bft)
14.05.2013 11:55 20,0 C 42 % 1017,2 hPa 0,0 l/m 3,7 km/h (1 Bft) O-SO 112 6,7 C 21,6 C 4,8 km/h (1 Bft)
14.05.2013 12:00 20,4 C 41 % 1017,2 hPa 0,0 l/m 3,4 km/h (1 Bft) W-SW 247 6,7 C 21,9 C 6,4 km/h (2 Bft)
14.05.2013 12:05 20,1 C 45 % 1017,1 hPa 0,0 l/m 3,4 km/h (1 Bft) S 180 7,8 C 22,0 C 3,1 km/h (1 Bft)
14.05.2013 12:10 20,0 C 41 % 1017,1 hPa 0,0 l/m 3,2 km/h (1 Bft) NO 45 6,3 C 22,3 C 4,7 km/h (1 Bft)
14.05.2013 12:15 19,9 C 43 % 1017,1 hPa 0,0 l/m 3,1 km/h (1 Bft) O 90 6,9 C 22,5 C 5,3 km/h (1 Bft)
14.05.2013 12:20 21,0 C 44 % 1017,1 hPa 0,0 l/m 4,0 km/h (1 Bft) W 270 8,3 C 22,8 C 6,8 km/h (2 Bft)
14.05.2013 12:25 19,1 C 44 % 1017,1 hPa 0,0 l/m 4,7 km/h (1 Bft) W-SW 247 6,6 C 22,2 C 6,4 km/h (2 Bft)
14.05.2013 12:30 19,6 C 45 % 1017,1 hPa 0,0 l/m 5,8 km/h (2 Bft) S-SW 202 7,3 C 21,6 C 5,3 km/h (1 Bft)
14.05.2013 12:35 17,3 C 47 % 1017,1 hPa 0,0 l/m 5,1 km/h (1 Bft) N 360 5,9 C 20,8 C 5,1 km/h (1 Bft)
14.05.2013 12:40 16,9 C 49 % 1017,1 hPa 0,0 l/m 4,2 km/h (1 Bft) N-NW 337 6,1 C 19,1 C 2,3 km/h (1 Bft)
14.05.2013 12:45 18,4 C 48 % 1016,6 hPa 0,0 l/m 3,9 km/h (1 Bft) W 270 7,2 C 19,3 C 6,3 km/h (2 Bft)
14.05.2013 12:50 19,5 C 47 % 1016,6 hPa 0,0 l/m 4,0 km/h (1 Bft) W-NW 292 7,9 C 20,9 C 13,4 km/h (3 Bft)
14.05.2013 12:55 19,0 C 48 % 1016,6 hPa 0,0 l/m 5,6 km/h (1 Bft) SW 225 7,7 C 21,0 C 7,9 km/h (2 Bft)
14.05.2013 13:00 16,9 C 49 % 1016,6 hPa 0,0 l/m 6,3 km/h (2 Bft) W 270 6,1 C 19,6 C 6,6 km/h (2 Bft)
14.05.2013 13:05 17,5 C 50 % 1016,6 hPa 0,0 l/m 5,8 km/h (2 Bft) SW 225 7,0 C 18,3 C 7,9 km/h (2 Bft)
14.05.2013 13:10 18,8 C 46 % 1016,6 hPa 0,0 l/m 6,4 km/h (2 Bft) W 270 6,9 C 19,5 C 13,0 km/h (3 Bft)
14.05.2013 13:15 18,4 C 47 % 1016,6 hPa 0,0 l/m 6,1 km/h (2 Bft) W-SW 247 6,9 C 20,2 C 3,4 km/h (1 Bft)
14.05.2013 13:20 17,4 C 50 % 1016,6 hPa 0,0 l/m 5,0 km/h (1 Bft) W-NW 292 6,9 C 20,1 C 7,7 km/h (2 Bft)
14.05.2013 13:25 18,1 C 50 % 1016,3 hPa 0,0 l/m 4,7 km/h (1 Bft) W 270 7,5 C 19,9 C 6,6 km/h (2 Bft)
14.05.2013 13:30 18,1 C 48 % 1016,3 hPa 0,0 l/m 5,0 km/h (1 Bft) N-NW 337 6,9 C 19,6 C 7,2 km/h (2 Bft)
14.05.2013 13:35 18,2 C 50 % 1016,3 hPa 0,0 l/m 5,3 km/h (1 Bft) W 270 7,6 C 19,6 C 4,7 km/h (1 Bft)
14.05.2013 13:40 16,6 C 50 % 1016,3 hPa 0,0 l/m 5,6 km/h (1 Bft) N-NW 337 6,1 C 18,6 C 2,6 km/h (1 Bft)
14.05.2013 13:45 18,2 C 52 % 1016,2 hPa 0,0 l/m 4,8 km/h (1 Bft) W 270 8,2 C 18,2 C 4,7 km/h (1 Bft)
14.05.2013 13:50 18,8 C 49 % 1016,2 hPa 0,0 l/m 4,5 km/h (1 Bft) W-NW 292 7,9 C 19,2 C 7,1 km/h (2 Bft)
14.05.2013 13:55 18,3 C 48 % 1016,2 hPa 0,0 l/m 5,1 km/h (1 Bft) W-NW 292 7,1 C 19,8 C 6,0 km/h (2 Bft)
14.05.2013 14:00 18,7 C 47 % 1016,2 hPa 0,0 l/m 6,1 km/h (2 Bft) N-NW 337 7,2 C 19,8 C 3,9 km/h (1 Bft)
14.05.2013 14:05 17,5 C 51 % 1016,3 hPa 0,0 l/m 6,0 km/h (2 Bft) NW 315 7,3 C 19,4 C 6,3 km/h (2 Bft)
14.05.2013 14:10 17,6 C 50 % 1016,3 hPa 0,0 l/m 4,5 km/h (1 Bft) NW 315 7,1 C 18,8 C 6,0 km/h (2 Bft)
14.05.2013 14:15 18,7 C 48 % 1016,3 hPa 0,0 l/m 4,3 km/h (1 Bft) N 360 7,5 C 19,4 C 6,0 km/h (2 Bft)
14.05.2013 14:20 19,3 C 47 % 1016,3 hPa 0,0 l/m 5,0 km/h (1 Bft) N-NW 337 7,7 C 20,5 C 7,9 km/h (2 Bft)
14.05.2013 14:25 19,1 C 47 % 1015,7 hPa 0,0 l/m 5,8 km/h (2 Bft) W-SW 247 7,5 C 20,9 C 20,6 km/h (4 Bft)
14.05.2013 14:30 17,4 C 50 % 1015,7 hPa 0,0 l/m 7,4 km/h (2 Bft) W-NW 292 6,9 C 19,9 C 10,6 km/h (2 Bft)
14.05.2013 14:35 16,5 C 53 % 1015,7 hPa 0,0 l/m 7,1 km/h (2 Bft) W-NW 292 6,9 C 18,6 C 5,8 km/h (2 Bft)
14.05.2013 14:40 18,2 C 49 % 1015,7 hPa 0,0 l/m 4,7 km/h (1 Bft) W-NW 292 7,3 C 18,7 C 3,7 km/h (1 Bft)
14.05.2013 14:45 19,1 C 47 % 1015,6 hPa 0,0 l/m 4,2 km/h (1 Bft) W-NW 292 7,5 C 19,8 C 5,0 km/h (1 Bft)
14.05.2013 14:50 19,3 C 47 % 1015,6 hPa 0,0 l/m 5,6 km/h (1 Bft) W-SW 247 7,7 C 20,9 C 10,5 km/h (2 Bft)
14.05.2013 14:55 17,7 C 50 % 1015,6 hPa 0,0 l/m 6,8 km/h (2 Bft) N-NW 337 7,1 C 20,1 C 9,5 km/h (2 Bft)
14.05.2013 15:00 18,4 C 50 % 1015,6 hPa 0,0 l/m 8,0 km/h (2 Bft) W-NW 292 7,8 C 18,3 C 3,9 km/h (1 Bft)
14.05.2013 15:05 19,1 C 49 % 1015,4 hPa 0,0 l/m 6,4 km/h (2 Bft) W-NW 292 8,1 C 19,9 C 8,9 km/h (2 Bft)
14.05.2013 15:10 19,0 C 49 % 1015,4 hPa 0,0 l/m 5,6 km/h (1 Bft) O-NO 67 8,0 C 20,5 C 7,7 km/h (2 Bft)
14.05.2013 15:15 20,1 C 48 % 1015,4 hPa 0,0 l/m 6,3 km/h (2 Bft) NW 315 8,7 C 21,0 C 8,0 km/h (2 Bft)
14.05.2013 15:20 19,2 C 47 % 1015,4 hPa 0,0 l/m 6,6 km/h (2 Bft) W-NW 292 7,6 C 21,7 C 11,7 km/h (2 Bft)
14.05.2013 15:25 18,3 C 49 % 1015,4 hPa 0,0 l/m 6,3 km/h (2 Bft) W-SW 247 7,4 C 20,9 C 4,8 km/h (1 Bft)
14.05.2013 15:30 19,1 C 48 % 1015,4 hPa 0,0 l/m 6,0 km/h (2 Bft) W 270 7,8 C 21,0 C 10,0 km/h (2 Bft)
14.05.2013 15:35 19,5 C 49 % 1015,4 hPa 0,0 l/m 6,1 km/h (2 Bft) W 270 8,5 C 20,8 C 10,3 km/h (2 Bft)
14.05.2013 15:40 20,1 C 45 % 1015,4 hPa 0,0 l/m 6,8 km/h (2 Bft) W-NW 292 7,8 C 21,4 C 5,6 km/h (1 Bft)
14.05.2013 15:45 18,4 C 49 % 1015,1 hPa 0,0 l/m 6,3 km/h (2 Bft) N 360 7,5 C 21,7 C 8,2 km/h (2 Bft)
14.05.2013 15:50 17,8 C 51 % 1015,1 hPa 0,0 l/m 6,4 km/h (2 Bft) W-NW 292 7,5 C 20,0 C 7,4 km/h (2 Bft)
14.05.2013 15:55 18,1 C 52 % 1015,1 hPa 0,0 l/m 6,0 km/h (2 Bft) N 360 8,1 C 19,3 C 8,7 km/h (2 Bft)
14.05.2013 16:00 19,0 C 49 % 1015,1 hPa 0,0 l/m 5,1 km/h (1 Bft) N-NW 337 8,0 C 20,7 C 9,0 km/h (2 Bft)
14.05.2013 16:05 19,6 C 48 % 1014,9 hPa 0,0 l/m 5,6 km/h (1 Bft) N 360 8,3 C 21,7 C 7,7 km/h (2 Bft)
14.05.2013 16:10 18,3 C 49 % 1014,9 hPa 0,0 l/m 6,3 km/h (2 Bft) W-NW 292 7,4 C 21,7 C 11,9 km/h (2 Bft)
14.05.2013 16:15 17,7 C 52 % 1014,9 hPa 0,0 l/m 5,5 km/h (1 Bft) W 270 7,7 C 20,6 C 3,1 km/h (1 Bft)
14.05.2013 16:20 18,6 C 52 % 1014,9 hPa 0,0 l/m 4,3 km/h (1 Bft) N-NW 337 8,5 C 20,3 C 8,4 km/h (2 Bft)
14.05.2013 16:25 18,5 C 49 % 1014,6 hPa 0,0 l/m 5,0 km/h (1 Bft) NW 315 7,6 C 21,1 C 6,8 km/h (2 Bft)
14.05.2013 16:30 19,4 C 49 % 1014,6 hPa 0,0 l/m 6,4 km/h (2 Bft) W-NW 292 8,4 C 21,9 C 8,9 km/h (2 Bft)
14.05.2013 16:35 18,8 C 48 % 1014,6 hPa 0,0 l/m 6,4 km/h (2 Bft) W-NW 292 7,6 C 22,1 C 7,9 km/h (2 Bft)
14.05.2013 16:40 17,6 C 53 % 1014,6 hPa 0,0 l/m 6,3 km/h (2 Bft) N-NW 337 7,9 C 20,7 C 7,1 km/h (2 Bft)
14.05.2013 16:45 17,2 C 53 % 1014,4 hPa 0,0 l/m 5,0 km/h (1 Bft) W-SW 247 7,5 C 19,6 C 5,0 km/h (1 Bft)
14.05.2013 16:50 17,7 C 53 % 1014,4 hPa 0,0 l/m 4,5 km/h (1 Bft) N-NW 337 8,0 C 19,1 C 3,5 km/h (1 Bft)
14.05.2013 16:55 18,3 C 52 % 1014,4 hPa 0,0 l/m 4,0 km/h (1 Bft) NW 315 8,3 C 20,1 C 8,5 km/h (2 Bft)
14.05.2013 17:00 17,8 C 53 % 1014,4 hPa 0,0 l/m 4,8 km/h (1 Bft) W-NW 292 8,1 C 21,6 C 8,4 km/h (2 Bft)
14.05.2013 17:05 17,4 C 53 % 1014,1 hPa 0,0 l/m 5,6 km/h (1 Bft) W-NW 292 7,7 C 20,7 C 5,8 km/h (2 Bft)
14.05.2013 17:10 17,3 C 54 % 1014,1 hPa 0,0 l/m 6,1 km/h (2 Bft) W-NW 292 7,9 C 19,5 C 5,1 km/h (1 Bft)
14.05.2013 17:15 17,3 C 54 % 1014,1 hPa 0,0 l/m 6,1 km/h (2 Bft) N 360 7,9 C 19,3 C 5,6 km/h (1 Bft)
14.05.2013 17:20 17,1 C 55 % 1014,1 hPa 0,0 l/m 3,9 km/h (1 Bft) W 270 8,0 C 19,0 C 1,8 km/h (1 Bft)
14.05.2013 17:25 17,3 C 55 % 1013,7 hPa 0,0 l/m 3,1 km/h (1 Bft) W-SW 247 8,2 C 19,4 C 5,3 km/h (1 Bft)
14.05.2013 17:30 17,0 C 55 % 1013,7 hPa 0,0 l/m 3,7 km/h (1 Bft) N 360 7,9 C 19,4 C 10,0 km/h (2 Bft)
14.05.2013 17:35 17,0 C 56 % 1013,7 hPa 0,0 l/m 4,8 km/h (1 Bft) NW 315 8,2 C 19,1 C 7,7 km/h (2 Bft)
14.05.2013 17:40 17,3 C 56 % 1013,7 hPa 0,0 l/m 4,7 km/h (1 Bft) N-NO 22 8,4 C 20,0 C 2,9 km/h (1 Bft)
14.05.2013 17:45 17,1 C 55 % 1013,5 hPa 0,0 l/m 3,9 km/h (1 Bft) N-NO 22 8,0 C 20,7 C 4,3 km/h (1 Bft)
14.05.2013 17:50 17,2 C 56 % 1013,5 hPa 0,0 l/m 4,0 km/h (1 Bft) N 360 8,3 C 20,7 C 6,4 km/h (2 Bft)
14.05.2013 17:55 17,2 C 56 % 1013,5 hPa 0,0 l/m 4,7 km/h (1 Bft) W-NW 292 8,3 C 20,9 C 6,4 km/h (2 Bft)
14.05.2013 18:00 17,1 C 56 % 1013,5 hPa 0,0 l/m 5,1 km/h (1 Bft) W 270 8,3 C 20,7 C 6,3 km/h (2 Bft)
14.05.2013 18:05 17,2 C 56 % 1013,1 hPa 0,0 l/m 5,0 km/h (1 Bft) W-SW 247 8,3 C 21,2 C 5,1 km/h (1 Bft)
14.05.2013 18:10 17,1 C 54 % 1013,1 hPa 0,0 l/m 5,6 km/h (1 Bft) N 360 7,7 C 22,0 C 6,3 km/h (2 Bft)
14.05.2013 18:15 17,1 C 56 % 1013,1 hPa 0,0 l/m 5,3 km/h (1 Bft) NW 315 8,3 C 22,0 C 6,3 km/h (2 Bft)
14.05.2013 18:20 16,9 C 56 % 1013,1 hPa 0,0 l/m 4,7 km/h (1 Bft) W-SW 247 8,1 C 22,2 C 3,9 km/h (1 Bft)
14.05.2013 18:25 17,1 C 56 % 1012,6 hPa 0,0 l/m 4,0 km/h (1 Bft) N-NO 22 8,3 C 22,7 C 7,2 km/h (2 Bft)
14.05.2013 18:30 16,9 C 56 % 1012,6 hPa 0,0 l/m 4,7 km/h (1 Bft) W-NW 292 8,1 C 21,8 C 3,9 km/h (1 Bft)
14.05.2013 18:35 16,7 C 57 % 1012,6 hPa 0,0 l/m 5,0 km/h (1 Bft) W 270 8,1 C 20,7 C 2,4 km/h (1 Bft)
14.05.2013 18:40 16,9 C 57 % 1012,6 hPa 0,0 l/m 3,9 km/h (1 Bft) W-NW 292 8,3 C 20,7 C 4,8 km/h (1 Bft)
14.05.2013 18:45 17,1 C 56 % 1012,4 hPa 0,0 l/m 4,0 km/h (1 Bft) W-NW 292 8,3 C 21,5 C 3,9 km/h (1 Bft)
14.05.2013 18:50 17,0 C 57 % 1012,4 hPa 0,0 l/m 5,3 km/h (1 Bft) SO 135 8,4 C 21,1 C 4,0 km/h (1 Bft)
14.05.2013 18:55 16,7 C 57 % 1012,4 hPa 0,0 l/m 6,0 km/h (2 Bft) N-NO 22 8,1 C 19,9 C 8,5 km/h (2 Bft)
14.05.2013 19:00 16,5 C 58 % 1012,4 hPa 0,0 l/m 4,2 km/h (1 Bft) W-NW 292 8,2 C 19,1 C 3,2 km/h (1 Bft)
14.05.2013 19:05 16,5 C 59 % 1012,1 hPa 0,0 l/m 3,9 km/h (1 Bft) NO 45 8,5 C 18,6 C 2,4 km/h (1 Bft)
14.05.2013 19:10 16,1 C 60 % 1012,1 hPa 0,0 l/m 3,5 km/h (1 Bft) W-NW 292 8,3 C 17,8 C 2,1 km/h (1 Bft)
14.05.2013 19:15 15,9 C 61 % 1012,1 hPa 0,0 l/m 3,7 km/h (1 Bft) NW 315 8,4 C 17,4 C 3,4 km/h (1 Bft)
14.05.2013 19:20 15,8 C 61 % 1012,1 hPa 0,0 l/m 3,9 km/h (1 Bft) W-NW 292 8,3 C 16,9 C 4,5 km/h (1 Bft)
14.05.2013 19:25 15,7 C 62 % 1012,5 hPa 0,0 l/m 4,3 km/h (1 Bft) W-NW 292 8,4 C 16,8 C 7,6 km/h (2 Bft)
14.05.2013 19:30 15,7 C 63 % 1012,5 hPa 0,0 l/m 3,9 km/h (1 Bft) W-NW 292 8,7 C 17,3 C 4,0 km/h (1 Bft)
14.05.2013 19:35 15,6 C 64 % 1012,5 hPa 0,0 l/m 3,4 km/h (1 Bft) SO 135 8,8 C 17,3 C 4,3 km/h (1 Bft)
14.05.2013 19:40 15,6 C 64 % 1012,5 hPa 0,0 l/m 3,1 km/h (1 Bft) NW 315 8,8 C 17,3 C 4,2 km/h (1 Bft)
14.05.2013 19:45 15,5 C 64 % 1012,4 hPa 0,0 l/m 3,5 km/h (1 Bft) W-NW 292 8,7 C 17,4 C 4,5 km/h (1 Bft)
14.05.2013 19:50 15,2 C 65 % 1012,4 hPa 0,0 l/m 3,4 km/h (1 Bft) N-NO 22 8,7 C 17,2 C 1,6 km/h (1 Bft)
14.05.2013 19:55 15,2 C 65 % 1012,4 hPa 0,0 l/m 1,9 km/h (1 Bft) O 90 8,7 C 17,2 C 0,0 km/h (0 Bft)
14.05.2013 20:00 15,1 C 66 % 1012,4 hPa 0,0 l/m 1,1 km/h (1 Bft) N-NW 337 8,8 C 17,8 C 3,4 km/h (1 Bft)
14.05.2013 20:05 15,0 C 66 % 1012,4 hPa 0,0 l/m 1,9 km/h (1 Bft) N-NW 337 8,7 C 18,2 C 2,3 km/h (1 Bft)
14.05.2013 20:10 14,9 C 67 % 1012,4 hPa 0,0 l/m 2,4 km/h (1 Bft) O 90 8,8 C 18,2 C 4,0 km/h (1 Bft)
14.05.2013 20:15 14,8 C 67 % 1012,4 hPa 0,0 l/m 2,6 km/h (1 Bft) NO 45 8,7 C 18,0 C 2,9 km/h (1 Bft)
14.05.2013 20:20 14,7 C 67 % 1012,4 hPa 0,0 l/m 2,1 km/h (1 Bft) NO 45 8,6 C 17,6 C 2,4 km/h (1 Bft)
14.05.2013 20:25 14,6 C 68 % 1012,1 hPa 0,0 l/m 1,1 km/h (1 Bft) O 90 8,8 C 17,5 C 0,0 km/h (0 Bft)
14.05.2013 20:30 14,5 C 68 % 1012,1 hPa 0,0 l/m 0,6 km/h (0 Bft) O 90 8,7 C 17,0 C 0,0 km/h (0 Bft)
14.05.2013 20:35 14,4 C 69 % 1012,1 hPa 0,0 l/m 1,4 km/h (1 Bft) NO 45 8,8 C 16,6 C 4,3 km/h (1 Bft)
14.05.2013 20:40 13,9 C 70 % 1012,1 hPa 0,0 l/m 1,8 km/h (1 Bft) W-NW 292 8,5 C 15,8 C 0,0 km/h (0 Bft)
14.05.2013 20:45 13,5 C 70 % 1011,8 hPa 0,0 l/m 1,6 km/h (1 Bft) O 90 8,1 C 15,2 C 2,7 km/h (1 Bft)
14.05.2013 20:50 13,3 C 70 % 1011,8 hPa 0,0 l/m 1,1 km/h (1 Bft) O 90 7,9 C 14,3 C 2,6 km/h (1 Bft)
14.05.2013 20:55 13,2 C 72 % 1011,8 hPa 0,0 l/m 1,1 km/h (1 Bft) O-NO 67 8,3 C 13,9 C 5,1 km/h (1 Bft)
14.05.2013 21:00 12,8 C 73 % 1011,8 hPa 0,0 l/m 1,8 km/h (1 Bft) N 360 8,1 C 13,4 C 3,4 km/h (1 Bft)
14.05.2013 21:05 12,6 C 74 % 1011,1 hPa 0,0 l/m 2,1 km/h (1 Bft) O 90 8,1 C 13,1 C 2,9 km/h (1 Bft)
14.05.2013 21:10 12,3 C 74 % 1011,1 hPa 0,0 l/m 1,8 km/h (1 Bft) NO 45 7,8 C 12,7 C 2,9 km/h (1 Bft)
14.05.2013 21:15 12,1 C 75 % 1011,1 hPa 0,0 l/m 1,8 km/h (1 Bft) NO 45 7,8 C 12,5 C 0,0 km/h (0 Bft)
14.05.2013 21:20 12,1 C 75 % 1011,1 hPa 0,0 l/m 1,6 km/h (1 Bft) N 360 7,8 C 12,3 C 3,7 km/h (1 Bft)
14.05.2013 21:25 11,9 C 76 % 1011,1 hPa 0,0 l/m 1,9 km/h (1 Bft) N-NO 22 7,8 C 12,3 C 2,1 km/h (1 Bft)
14.05.2013 21:30 12,3 C 76 % 1011,1 hPa 0,0 l/m 2,9 km/h (1 Bft) O 90 8,2 C 12,5 C 3,7 km/h (1 Bft)
14.05.2013 21:35 12,4 C 76 % 1011,1 hPa 0,0 l/m 2,4 km/h (1 Bft) NO 45 8,3 C 12,6 C 0,0 km/h (0 Bft)
14.05.2013 21:40 12,4 C 77 % 1011,1 hPa 0,0 l/m 2,1 km/h (1 Bft) NO 45 8,5 C 12,6 C 3,1 km/h (1 Bft)
14.05.2013 21:45 12,3 C 76 % 1011,1 hPa 0,0 l/m 1,8 km/h (1 Bft) N-NW 337 8,2 C 12,6 C 1,9 km/h (1 Bft)
14.05.2013 21:50 12,1 C 77 % 1011,1 hPa 0,0 l/m 1,6 km/h (1 Bft) O 90 8,2 C 12,5 C 2,9 km/h (1 Bft)
14.05.2013 21:55 12,0 C 77 % 1011,1 hPa 0,0 l/m 1,3 km/h (1 Bft) NO 45 8,1 C 12,4 C 0,0 km/h (0 Bft)
14.05.2013 22:00 11,7 C 77 % 1011,1 hPa 0,0 l/m 0,6 km/h (0 Bft) NO 45 7,8 C 12,1 C 0,0 km/h (0 Bft)
14.05.2013 22:05 11,6 C 77 % 1010,9 hPa 0,0 l/m 0,8 km/h (0 Bft) O 90 7,7 C 11,7 C 3,5 km/h (1 Bft)
14.05.2013 22:10 11,6 C 78 % 1010,9 hPa 0,0 l/m 1,8 km/h (1 Bft) O-NO 67 7,9 C 11,4 C 4,8 km/h (1 Bft)
14.05.2013 22:15 11,4 C 78 % 1010,9 hPa 0,0 l/m 1,9 km/h (1 Bft) NO 45 7,7 C 11,4 C 1,9 km/h (1 Bft)
14.05.2013 22:20 11,0 C 78 % 1010,9 hPa 0,0 l/m 1,9 km/h (1 Bft) NO 45 7,3 C 11,2 C 0,0 km/h (0 Bft)
14.05.2013 22:25 11,1 C 79 % 1010,9 hPa 0,0 l/m 1,1 km/h (1 Bft) O-SO 112 7,6 C 11,0 C 0,0 km/h (0 Bft)
14.05.2013 22:30 10,9 C 79 % 1010,9 hPa 0,0 l/m 1,1 km/h (1 Bft) O 90 7,4 C 10,8 C 2,4 km/h (1 Bft)
14.05.2013 22:35 10,9 C 79 % 1010,9 hPa 0,0 l/m 1,4 km/h (1 Bft) N-NO 22 7,4 C 10,7 C 0,0 km/h (0 Bft)
14.05.2013 22:40 10,7 C 80 % 1010,9 hPa 0,0 l/m 1,8 km/h (1 Bft) O 90 7,4 C 10,5 C 3,9 km/h (1 Bft)
14.05.2013 22:45 10,6 C 80 % 1010,5 hPa 0,0 l/m 2,4 km/h (1 Bft) O 90 7,3 C 10,4 C 5,0 km/h (1 Bft)
14.05.2013 22:50 10,6 C 81 % 1010,5 hPa 0,0 l/m 2,7 km/h (1 Bft) NO 45 7,5 C 10,4 C 5,8 km/h (2 Bft)
14.05.2013 22:55 10,6 C 81 % 1010,5 hPa 0,0 l/m 2,6 km/h (1 Bft) N-NO 22 7,5 C 10,4 C 0,0 km/h (0 Bft)
14.05.2013 23:00 10,3 C 81 % 1010,5 hPa 0,0 l/m 2,1 km/h (1 Bft) O-NO 67 7,2 C 10,3 C 2,1 km/h (1 Bft)
14.05.2013 23:05 10,3 C 81 % 1010,4 hPa 0,0 l/m 2,1 km/h (1 Bft) NO 45 7,2 C 10,2 C 4,3 km/h (1 Bft)
14.05.2013 23:10 10,1 C 81 % 1010,4 hPa 0,0 l/m 2,9 km/h (1 Bft) O-NO 67 7,0 C 10,0 C 3,9 km/h (1 Bft)
14.05.2013 23:15 10,1 C 82 % 1010,4 hPa 0,0 l/m 3,1 km/h (1 Bft) O 90 7,2 C 10,0 C 3,9 km/h (1 Bft)
14.05.2013 23:20 10,0 C 82 % 1010,4 hPa 0,0 l/m 3,2 km/h (1 Bft) O-NO 67 7,1 C 9,9 C 3,5 km/h (1 Bft)
14.05.2013 23:25 9,8 C 83 % 1010,2 hPa 0,0 l/m 2,9 km/h (1 Bft) N-NO 22 7,1 C 9,7 C 3,1 km/h (1 Bft)
14.05.2013 23:30 9,8 C 83 % 1010,2 hPa 0,0 l/m 2,6 km/h (1 Bft) NO 45 7,1 C 9,5 C 2,1 km/h (1 Bft)
14.05.2013 23:35 9,7 C 84 % 1010,2 hPa 0,0 l/m 2,7 km/h (1 Bft) NO 45 7,1 C 9,5 C 3,5 km/h (1 Bft)
14.05.2013 23:40 9,5 C 84 % 1010,2 hPa 0,0 l/m 2,9 km/h (1 Bft) NO 45 6,9 C 9,4 C 2,7 km/h (1 Bft)
14.05.2013 23:45 9,4 C 84 % 1009,9 hPa 0,0 l/m 2,6 km/h (1 Bft) O-NO 67 6,8 C 9,1 C 1,8 km/h (1 Bft)
14.05.2013 23:50 9,2 C 84 % 1009,9 hPa 0,0 l/m 1,6 km/h (1 Bft) O 90 6,6 C 8,8 C 2,4 km/h (1 Bft)
14.05.2013 23:55 9,1 C 85 % 1009,9 hPa 0,0 l/m 1,1 km/h (1 Bft) NO 45 6,7 C 8,6 C 1,6 km/h (1 Bft)
_ Min-Zeit 06:25 12:10 23:55 - 07:45 - - 03:10 05:40 22:55
Minimum _ 4,8 C 41 % 1009,9 hPa - 0,0 km/h (0 Bft) - - 3,3 C 4,5 C 0,0 km/h (0 Bft)
_ Max-Zeit 11:50 04:10 00:00 23:55 15:00 - - 07:45 12:20 14:25
Maximum _ 21,1 C 92 % 1018,3 hPa 0,0 l/m 8,0 km/h
W-NW (2 Bft)
- - 8,9 C 22,8 C 20,6 km/h
W-SW (4 Bft)
Durchschnitt _ 13,2 C 67 % 1015,4 hPa #0,0 l/m 2,7 km/h (1 Bft) W-NW - 6,5 C 14,0 C 3,5 km/h (1 Bft)